Newton, IA

6:08 AM CST on December 17, 2017 (GMT -0600)
Newton Municipal

Weather History for KTNU - January, 2013

Change the Weather History Date:

Wednesday, January 16, 2013

  Actual Average Record
Temperature  
Mean Temperature 32 °F -  
Max Temperature 44 °F 28 °F 56 °F (1990)
Min Temperature 19 °F 10 °F -20 °F (1977)
Degree Days  
Heating Degree Days 34    
Moisture  
Dew Point 23 °F    
Average Humidity 70    
Maximum Humidity 93    
Minimum Humidity 60    
Precipitation  
Precipitation 0.00 in - - ()
Sea Level Pressure  
Sea Level Pressure 29.97 in    
Wind  
Wind Speed 13 mph (WSW)    
Max Wind Speed 21 mph    
Max Gust Speed 22 mph    
Visibility 10 miles    
Events      
Averages and records for this station are not official NWS values.
T = Trace of Precipitation, MM = Missing Value Source: NWS Daily Summary

Daily Weather History Graph

Daily Weather History Graph

Search for Another Location

Airport or City:

Trip Planner

Search our weather history database for the weather conditions in past years. The results will help you decide how hot, cold, wet, or windy it might be!

Date:

Astronomy

Jan. 16, 2013 Rise Set
Actual Time 7:36 AM CST 5:08 PM CST
Civil Twilight 7:05 AM CST 5:38 PM CST
Nautical Twilight 6:31 AM CST 6:13 PM CST
Astronomical Twilight 5:58 AM CST 6:46 PM CST
Moon 10:07 AM CST (1/16) 11:06 PM CST (1/16)
Length of Visible Light 10h 33m
Length of Day
9h 32m
Waxing Crescent, 28% of the Moon is Illuminated
Jan 16
Waxing Crescent
Jan 18
First Quarter
Jan 26
Full
Feb 3
Last Quarter
Feb 10
New

Hourly Weather History & Observations

Time (CST) Temp. Windchill Dew Point Humidity Pressure Visibility Wind Dir Wind Speed Gust Speed Precip Events Conditions
12:15 AM 21.2 °F 10.1 °F 10.4 °F 63% 30.05 in 10.0 mi SSW 10.4 mph - N/A   Clear
12:35 AM 21.2 °F 9.5 °F 10.4 °F 63% 30.05 in 10.0 mi SSW 11.5 mph - N/A   Clear
12:55 AM 21.2 °F 8.9 °F 10.4 °F 63% 30.04 in 10.0 mi SSW 12.7 mph - N/A   Clear
1:15 AM 21.2 °F 9.5 °F 10.4 °F 63% 30.03 in 10.0 mi SSW 11.5 mph - N/A   Clear
1:35 AM 21.2 °F 8.9 °F 10.4 °F 63% 30.03 in 10.0 mi SSW 12.7 mph 18.4 mph N/A   Clear
1:55 AM 21.2 °F 8.3 °F 10.4 °F 63% 30.03 in 10.0 mi SSW 13.8 mph - N/A   Clear
2:15 AM 21.2 °F 8.9 °F 10.4 °F 63% 30.03 in 10.0 mi SW 12.7 mph - N/A   Clear
2:35 AM 21.2 °F 8.9 °F 10.4 °F 63% 30.02 in 10.0 mi SSW 12.7 mph - N/A   Clear
2:55 AM 19.4 °F 7.2 °F 10.4 °F 68% 30.00 in 10.0 mi SSW 11.5 mph - N/A   Clear
3:15 AM 21.2 °F 8.3 °F 10.4 °F 63% 29.99 in 10.0 mi SSW 13.8 mph - N/A   Clear
3:35 AM 21.2 °F 8.3 °F 10.4 °F 63% 29.98 in 10.0 mi SSW 13.8 mph - N/A   Clear
3:55 AM 21.2 °F 8.9 °F 10.4 °F 63% 29.97 in 10.0 mi SSW 12.7 mph - N/A   Clear
4:15 AM 21.2 °F 8.9 °F 10.4 °F 63% 29.96 in 10.0 mi SSW 12.7 mph - N/A   Clear
4:35 AM 19.4 °F 7.2 °F 10.4 °F 68% 29.94 in 10.0 mi SSW 11.5 mph - N/A   Clear
4:55 AM 21.2 °F 8.9 °F 12.2 °F 68% 29.94 in 10.0 mi SSW 12.7 mph - N/A   Clear
5:15 AM 21.2 °F 8.9 °F 12.2 °F 68% 29.92 in 10.0 mi SSW 12.7 mph - N/A   Clear
5:35 AM 21.2 °F 7.8 °F 12.2 °F 68% 29.91 in 10.0 mi SSW 15.0 mph - N/A   Clear
5:55 AM 21.2 °F 7.8 °F 12.2 °F 68% 29.89 in 10.0 mi SSW 15.0 mph - N/A   Clear
6:35 AM 23.0 °F 9.6 °F 14.0 °F 68% 29.90 in 10.0 mi SW 16.1 mph - N/A   Mostly Cloudy
6:55 AM 23.0 °F 9.6 °F 14.0 °F 68% 29.90 in 10.0 mi SW 16.1 mph - N/A   Overcast
7:15 AM 23.0 °F 10.6 °F 14.0 °F 68% 29.90 in 10.0 mi SW 13.8 mph - N/A   Overcast
7:35 AM 24.8 °F 13.4 °F 15.8 °F 69% 29.89 in 10.0 mi SW 12.7 mph - N/A   Overcast
7:55 AM 24.8 °F 11.5 °F 15.8 °F 69% 29.89 in 10.0 mi SW 17.3 mph - N/A   Overcast
8:15 AM 26.6 °F 13.1 °F 15.8 °F 64% 29.90 in 10.0 mi SW 19.6 mph - N/A   Overcast
8:35 AM 26.6 °F 13.8 °F 17.6 °F 69% 29.90 in 10.0 mi SW 17.3 mph - N/A   Overcast
8:55 AM 26.6 °F 15.2 °F 17.6 °F 69% 29.91 in 10.0 mi WSW 13.8 mph - N/A   Overcast
9:15 AM 28.4 °F 17.0 °F 17.6 °F 64% 29.90 in 10.0 mi WSW 15.0 mph - N/A   Overcast
9:35 AM 30.2 °F 18.1 °F 17.6 °F 60% 29.89 in 10.0 mi WSW 18.4 mph - N/A   Overcast
9:55 AM 30.2 °F 19.3 °F 19.4 °F 64% 29.90 in 10.0 mi WSW 15.0 mph - N/A   Overcast
10:15 AM 32.0 °F 21.2 °F 21.2 °F 64% 29.90 in 10.0 mi WSW 16.1 mph - N/A   Overcast
10:35 AM 32.0 °F 22.5 °F 21.2 °F 64% 29.90 in 10.0 mi WSW 12.7 mph - N/A   Overcast
10:55 AM 33.8 °F 24.8 °F 23.0 °F 65% 29.89 in 10.0 mi WSW 12.7 mph - N/A   Mostly Cloudy
11:15 AM 33.8 °F 23.9 °F 24.8 °F 70% 29.89 in 10.0 mi West 15.0 mph 21.9 mph N/A   Clear
11:35 AM 35.6 °F 26.2 °F 24.8 °F 65% 29.90 in 10.0 mi West 15.0 mph - N/A   Mostly Cloudy
11:55 AM 35.6 °F 27.1 °F 26.6 °F 70% 29.89 in 10.0 mi West 12.7 mph - N/A   Overcast
12:15 PM 37.4 °F 28.9 °F 26.6 °F 65% 29.88 in 10.0 mi West 13.8 mph - N/A   Overcast
12:35 PM 37.4 °F 29.3 °F 28.4 °F 70% 29.87 in 10.0 mi WSW 12.7 mph - N/A   Mostly Cloudy
12:55 PM 39.2 °F 30.2 °F 30.2 °F 70% 29.87 in 10.0 mi West 17.3 mph - N/A   Partly Cloudy
1:15 PM 41.0 °F 32.8 °F 30.2 °F 65% 29.88 in 10.0 mi West 16.1 mph - N/A   Clear
1:35 PM 41.0 °F 33.5 °F 32.0 °F 70% 29.88 in 10.0 mi West 13.8 mph 19.6 mph N/A   Clear
2:15 PM 42.8 °F 35.4 °F 32.0 °F 66% 29.88 in 10.0 mi West 15.0 mph - N/A   Clear
2:35 PM 42.8 °F 37.0 °F 32.0 °F 66% 29.88 in 10.0 mi West 10.4 mph - N/A   Clear
2:55 PM 44.6 °F 38.1 °F 32.0 °F 61% 29.88 in 10.0 mi West 13.8 mph - N/A   Clear
3:15 PM 44.6 °F 38.8 °F 32.0 °F 61% 29.89 in 10.0 mi West 11.5 mph - N/A   Partly Cloudy
3:35 PM 44.6 °F 38.4 °F 32.0 °F 61% 29.90 in 10.0 mi West 12.7 mph - N/A   Mostly Cloudy
3:55 PM 44.6 °F 38.1 °F 33.8 °F 66% 29.91 in 10.0 mi West 13.8 mph - N/A   Scattered Clouds
4:15 PM 44.6 °F 38.8 °F 33.8 °F 66% 29.92 in 10.0 mi West 11.5 mph - N/A   Clear
4:35 PM 42.8 °F 37.5 °F 33.8 °F 70% 29.94 in 10.0 mi West 9.2 mph - N/A   Mostly Cloudy
4:55 PM 42.8 °F 38.6 °F 33.8 °F 70% 29.95 in 10.0 mi West 6.9 mph - N/A   Overcast
5:15 PM 42.8 °F 38.0 °F 33.8 °F 70% 29.96 in 10.0 mi West 8.1 mph - N/A   Overcast
5:35 PM 41.0 °F 37.1 °F 33.8 °F 76% 29.96 in 10.0 mi West 5.8 mph - N/A   Overcast
5:55 PM 39.2 °F 33.6 °F 32.0 °F 75% 29.96 in 10.0 mi West 8.1 mph - N/A   Scattered Clouds
6:15 PM 39.2 °F 33.0 °F 32.0 °F 75% 29.96 in 10.0 mi WNW 9.2 mph - N/A   Clear
6:35 PM 41.0 °F 35.8 °F 32.0 °F 70% 29.98 in 10.0 mi West 8.1 mph - N/A   Clear
6:55 PM 41.0 °F 35.2 °F 33.8 °F 76% 30.00 in 10.0 mi WNW 9.2 mph - N/A   Mostly Cloudy
7:15 PM 41.0 °F 34.7 °F 33.8 °F 76% 30.01 in 10.0 mi NW 10.4 mph - N/A   Overcast
7:35 PM 41.0 °F 33.1 °F 33.8 °F 76% 30.02 in 10.0 mi NNW 15.0 mph - N/A   Overcast
7:55 PM 39.2 °F 31.2 °F 32.0 °F 75% 30.03 in 10.0 mi NNW 13.8 mph - N/A   Overcast
8:15 PM 39.2 °F 31.6 °F 32.0 °F 75% 30.04 in 10.0 mi NNW 12.7 mph - N/A   Overcast
8:35 PM 39.2 °F 31.6 °F 32.0 °F 75% 30.06 in 10.0 mi North 12.7 mph - N/A   Overcast
8:55 PM 37.4 °F 29.3 °F 32.0 °F 81% 30.07 in 10.0 mi North 12.7 mph 18.4 mph N/A   Overcast
9:15 PM 35.6 °F 28.0 °F 32.0 °F 87% 30.09 in 10.0 mi NNW 10.4 mph - N/A   Scattered Clouds
9:35 PM 33.8 °F 26.4 °F 32.0 °F 93% 30.10 in 10.0 mi NNW 9.2 mph - N/A   Clear
9:55 PM 33.8 °F 25.3 °F 32.0 °F 93% 30.11 in 10.0 mi NNW 11.5 mph - N/A   Clear
10:15 PM 33.8 °F 22.2 °F 30.2 °F 87% 30.12 in 10.0 mi NNW 20.7 mph - N/A   Mostly Cloudy
10:35 PM 32.0 °F 21.6 °F 28.4 °F 87% 30.13 in 10.0 mi North 15.0 mph 20.7 mph N/A   Mostly Cloudy
10:55 PM 32.0 °F 20.8 °F 26.6 °F 80% 30.13 in 10.0 mi North 17.3 mph - N/A   Partly Cloudy
11:15 PM 30.2 °F 18.1 °F 24.8 °F 80% 30.15 in 10.0 mi North 18.4 mph - N/A   Clear
11:35 PM 30.2 °F 18.5 °F 24.8 °F 80% 30.17 in 10.0 mi NNW 17.3 mph - N/A   Clear
11:55 PM 28.4 °F 17.0 °F 24.8 °F 86% 30.18 in 10.0 mi North 15.0 mph - N/A   Clear